Theta_e
331 319 320 318 302 303 297 302 307 312 323 327 328 324 322 326 323 315 338 343 347 356 359 364 366 367 366 364 363 361 360 361 362 361 361 362 363 363 363 363 364 364 363 362 361 359 360 361 361
328 321 316 309 300 295 298 304 304 315 326 326 325 326 325 321 334 333 336 348 357 353 356 363 366 366 366 363 362 361 361 362 362 361 362 362 363 363 363 363 364 364 363 361 360 360 361 361 361
329 323 307 304 300 296 298 303 305 310 328 333 328 330 327 327 334 335 346 357 354 354 359 362 366 365 365 363 362 361 361 362 362 362 362 362 363 363 363 363 364 364 362 361 361 362 362 362 361
316 310 309 300 300 307 300 303 306 309 326 330 330 329 332 339 340 343 356 355 354 353 358 363 365 364 364 364 362 362 361 362 362 362 362 362 363 363 362 362 363 364 364 363 363 362 361 361 361
314 304 299 299 301 306 308 306 307 307 317 322 328 325 330 346 350 353 356 360 352 350 356 359 363 364 364 364 363 362 362 361 362 362 362 363 363 362 362 362 362 362 363 363 363 362 361 360 359
302 301 292 295 304 307 303 306 305 307 309 314 318 317 320 335 341 352 358 352 343 349 352 355 362 363 363 363 363 363 362 362 362 362 362 362 362 362 362 362 361 361 362 362 362 361 360 358 356
298 297 292 293 299 304 305 305 302 304 306 308 315 308 310 315 319 341 357 355 348 350 351 353 356 360 363 362 362 362 362 362 362 361 361 361 362 361 361 362 362 361 360 360 361 361 359 358 356
301 299 296 295 295 296 306 306 304 305 307 315 315 306 303 313 320 321 342 354 353 352 351 350 353 355 355 358 362 362 361 361 361 361 361 361 361 361 361 359 360 361 360 359 359 359 358 357 355
303 294 292 296 298 299 304 301 306 309 307 312 313 311 313 320 321 317 317 327 344 352 354 352 353 351 350 352 358 361 362 362 361 362 361 359 356 356 358 359 359 361 361 360 359 358 356 354 353
299 294 297 303 302 299 303 303 305 305 306 308 311 314 317 318 317 315 313 311 314 318 323 341 336 340 351 353 352 352 356 356 356 357 357 356 353 351 354 357 358 360 360 359 359 358 356 354 343
298 296 302 304 306 304 303 304 305 304 301 307 307 309 314 315 313 313 314 313 314 319 325 326 330 332 330 349 351 350 350 349 350 350 352 352 351 350 352 350 352 352 358 354 356 354 351 346 343
295 303 304 303 305 303 302 305 304 304 302 310 310 311 311 310 312 312 311 313 317 321 326 329 328 329 328 331 331 333 345 351 347 347 346 350 347 343 343 343 349 350 352 350 348 348 347 345 342
298 302 304 304 302 300 305 303 303 303 307 310 311 311 309 309 311 314 314 319 321 325 327 327 328 332 333 332 333 331 331 334 349 351 350 349 349 346 345 343 347 348 349 349 346 345 344 343 342
301 302 301 302 302 302 301 303 303 305 309 308 309 308 307 308 307 310 317 321 325 326 327 327 328 329 331 331 332 332 332 331 332 343 353 350 350 349 346 345 346 346 348 348 348 344 344 342 343
303 297 301 301 302 302 304 300 302 306 307 306 307 308 308 308 310 308 316 320 325 327 325 323 325 326 326 326 330 332 331 333 330 331 337 353 352 350 350 346 345 344 345 343 345 345 342 341 343
299 297 291 300 303 304 302 293 303 306 305 305 307 308 309 308 308 312 319 321 322 323 322 324 326 324 324 325 326 330 333 331 330 330 332 341 354 353 349 348 346 345 344 342 341 341 339 340 340
297 291 294 299 303 302 299 295 303 307 305 304 304 306 307 307 308 312 321 321 321 320 321 324 323 322 324 323 321 323 324 328 329 329 330 331 345 354 350 349 349 348 345 344 343 341 339 337 337
292 293 295 295 301 301 298 297 302 304 304 303 303 304 305 305 306 317 319 321 321 321 321 322 323 322 324 321 319 317 318 318 319 322 328 331 333 347 350 350 347 348 343 341 344 340 340 340 338
298 296 295 299 303 299 298 298 301 302 301 301 302 303 304 308 315 316 318 320 320 320 319 319 321 321 321 320 317 318 317 318 319 320 325 325 334 327 346 350 347 348 344 342 341 338 334 336 339
298 296 295 299 303 299 297 297 300 301 302 303 304 303 302 311 313 316 315 317 318 317 317 319 320 320 319 319 319 321 318 318 320 318 319 322 324 325 334 343 340 343 341 337 339 340 335 336 339
297 295 295 294 298 298 296 293 296 302 304 304 301 302 303 305 310 313 315 315 317 317 317 318 318 319 319 320 318 318 316 316 316 318 320 321 323 326 326 336 343 340 333 333 332 341 337 335 336
293 301 299 297 293 286 295 287 294 298 300 303 301 300 301 303 305 313 314 314 314 317 318 318 317 317 321 319 316 314 313 311 313 316 319 321 321 322 326 329 338 337 331 325 328 336 340 337 334
296 301 298 298 292 290 292 287 294 297 297 301 303 305 304 307 307 312 313 315 315 316 314 319 318 316 318 318 317 314 313 314 315 315 316 317 320 323 325 329 331 329 328 334 337 337 337 335 333
303 298 297 294 290 283 291 290 288 294 297 301 304 305 308 309 309 309 311 313 313 317 316 316 317 317 319 318 317 316 314 315 314 313 314 316 318 319 320 326 324 324 329 330 334 337 337 338 339
298 291 282 281 281 283 293 289 289 298 301 301 301 303 306 308 307 308 308 308 311 311 315 319 316 315 318 316 316 315 315 314 313 312 312 312 316 316 317 319 321 320 318 320 327 331 335 337 335
294 289 282 279 279 284 292 285 289 300 302 303 304 305 308 308 308 308 308 308 309 312 314 314 314 316 316 314 315 314 313 313 313 312 312 314 314 316 318 319 322 321 321 320 320 323 326 334 336
294 288 294 286 288 284 287 292 296 302 302 302 302 303 305 306 305 306 307 310 311 311 312 312 312 312 315 312 312 312 313 312 314 312 312 313 314 317 318 319 318 321 328 328 326 321 329 331 332
296 298 286 288 281 279 285 288 289 294 297 301 300 301 303 305 304 307 308 309 311 311 310 309 309 310 311 310 311 312 311 312 313 312 311 311 313 314 315 317 318 319 323 327 326 324 330 325 325
294 290 290 290 290 279 280 283 297 295 295 295 297 300 301 301 303 304 304 307 309 309 308 308 308 308 308 308 308 308 310 311 310 310 310 310 312 314 315 317 318 319 320 324 324 321 322 323 323
297 295 293 287 285 288 287 286 298 298 298 298 299 301 301 303 305 304 303 305 305 308 310 308 306 305 307 307 306 306 308 307 306 306 307 308 309 311 312 312 314 318 320 322 326 324 324 328 329
Wind_Speed
7 10 3 3 5 5 5 5 6 18 11 10 15 14 16 10 11 5 8 19 17 6 7 12 13 13 15 16 15 14 14 14 14 14 13 13 13 12 11 10 10 10 10 10 10 9 9 9 8
5 7 1 2 4 4 6 10 13 15 22 25 20 14 9 6 3 5 5 17 11 10 7 9 14 13 14 15 15 14 14 14 14 14 13 12 11 11 10 10 9 9 9 9 9 8 7 7 5
4 6 4 3 1 2 5 8 10 17 24 15 12 3 13 10 8 7 13 21 17 14 9 9 14 15 13 14 14 13 13 13 13 14 13 14 12 10 9 9 8 9 9 9 8 7 6 4 3
4 4 3 4 5 7 4 7 10 17 21 21 19 7 7 19 25 17 14 17 15 12 10 11 13 14 14 14 14 12 12 12 12 13 13 12 12 10 9 9 9 8 7 7 7 6 5 4 3
3 2 1 1 5 9 8 7 8 8 15 16 18 10 8 14 7 5 17 14 12 7 9 11 12 13 14 14 14 12 12 10 10 10 11 12 11 11 10 9 7 7 7 6 6 6 5 4 4
4 2 4 2 9 14 1 7 7 8 10 14 10 10 6 7 6 16 24 28 19 5 6 12 16 14 13 14 13 11 11 11 10 10 9 9 10 10 10 10 10 9 8 7 7 7 7 6 5
4 3 5 6 8 3 4 2 5 6 10 11 15 6 4 11 7 5 19 23 22 22 13 8 10 12 16 16 15 14 12 12 11 11 11 11 10 10 10 10 10 10 10 10 10 9 9 8 8
4 3 7 6 2 2 1 2 3 7 5 4 6 3 3 6 8 10 13 15 16 12 9 7 5 6 6 7 14 14 15 13 11 10 10 10 10 11 11 11 10 10 10 10 10 10 10 9 9
1 3 4 7 7 4 5 3 3 3 4 5 6 9 4 3 8 9 9 9 9 10 9 7 7 5 6 7 9 11 13 13 15 12 11 8 4 5 7 8 10 11 11 10 10 10 10 10 10
5 3 6 3 5 5 7 4 6 3 4 3 7 8 7 7 8 11 10 8 10 9 10 9 7 1 6 5 4 3 6 6 6 7 10 8 8 7 9 10 15 14 13 12 11 10 10 9 4
2 3 5 4 7 8 6 9 6 7 5 3 8 6 7 6 7 8 7 7 9 6 11 10 10 8 7 5 3 2 2 3 4 7 7 6 6 6 7 6 6 6 12 6 8 7 5 6 5
4 4 5 3 6 5 6 8 7 6 0 10 9 7 6 3 7 8 6 8 8 11 11 12 10 10 7 3 3 0 1 3 4 6 7 6 5 7 6 5 8 8 6 8 6 5 7 8 9
3 1 5 1 3 1 5 8 5 8 4 7 6 8 6 6 6 7 8 8 10 13 11 9 11 13 10 9 8 5 2 1 5 5 8 7 7 6 6 5 7 8 7 7 7 7 8 9 10
3 5 5 5 6 4 4 5 6 8 7 6 7 3 1 5 3 6 10 11 13 12 11 11 13 10 10 9 8 7 6 6 2 4 6 9 7 7 5 5 6 7 7 6 7 8 7 8 8
3 4 8 6 7 5 4 2 8 13 8 9 8 6 2 5 7 2 9 13 15 11 9 9 9 10 9 9 8 6 5 6 5 9 1 9 8 7 7 6 5 5 6 8 8 9 7 7 7
5 4 3 12 9 6 10 8 13 10 5 7 9 8 8 8 7 9 11 14 12 12 10 9 9 8 7 7 6 5 6 5 5 5 8 4 8 11 10 6 6 5 5 5 5 5 5 10 8
3 4 5 6 7 6 7 7 14 10 4 7 9 9 9 9 10 9 14 14 13 11 10 9 9 7 8 7 6 6 7 5 5 6 6 10 6 9 8 8 8 7 5 4 3 2 3 4 4
5 7 8 7 10 3 8 8 6 3 4 8 8 7 8 9 7 16 15 14 13 11 10 9 6 5 5 4 5 5 5 6 5 6 6 9 6 8 7 5 5 3 2 2 2 3 1 2 3
6 7 7 8 11 5 6 7 9 8 7 9 9 9 9 9 11 13 14 14 12 10 9 9 8 4 3 3 4 5 5 7 7 5 9 10 10 12 11 7 5 3 7 5 5 3 4 3 3
6 8 9 7 7 8 9 14 12 11 12 13 16 11 8 12 12 14 12 9 10 10 10 9 8 6 2 1 1 0 2 4 5 4 7 7 12 11 7 10 3 7 11 12 6 4 3 3 3
6 5 8 8 9 8 9 10 9 20 18 15 5 10 9 14 12 12 12 10 11 10 9 9 9 7 4 3 1 2 2 2 5 10 11 11 12 12 9 5 5 7 5 6 6 6 7 6 3
5 10 11 11 8 4 3 13 10 12 14 12 5 8 8 8 7 10 10 10 9 9 9 10 9 7 5 4 0 2 1 2 2 4 7 12 13 11 11 7 5 4 4 3 5 6 6 4 9
6 3 6 9 8 8 7 3 12 9 10 21 22 18 16 25 9 4 9 13 8 8 6 8 7 3 3 3 3 1 2 3 2 3 7 11 12 10 7 9 5 5 4 5 6 8 7 4 5
6 8 7 5 4 4 7 4 7 7 12 16 17 17 19 20 17 18 19 21 13 13 10 12 11 8 10 3 5 3 4 5 4 4 6 7 7 9 7 8 6 7 7 7 10 9 7 8 9
8 8 6 6 6 7 8 7 6 8 13 15 14 12 13 13 13 15 13 12 13 14 11 9 8 7 12 9 5 4 4 5 7 5 5 7 5 9 11 5 6 6 6 8 6 4 6 8 9
4 1 5 6 3 8 4 6 6 7 12 10 10 12 11 9 8 9 7 6 3 5 3 4 4 8 13 11 6 5 5 4 5 4 2 6 7 8 9 6 5 6 9 10 9 4 4 9 12
5 3 9 5 5 4 5 8 5 15 12 8 7 8 6 4 4 6 5 4 2 4 5 5 9 12 12 6 5 4 4 4 5 6 4 3 7 8 12 10 6 6 9 11 11 8 6 4 10
4 6 7 4 5 11 2 6 8 11 18 10 11 9 10 11 9 11 8 6 5 8 6 9 11 9 4 3 3 4 6 6 5 3 5 6 9 10 11 11 8 6 8 12 12 12 11 8 6
13 8 6 0 3 1 5 6 16 15 8 6 5 6 6 6 6 6 7 9 8 7 8 8 9 6 3 3 4 2 2 2 4 5 5 6 10 9 10 11 11 10 10 12 9 10 13 15 17
8 6 5 2 10 8 9 11 13 13 11 9 12 6 5 6 5 8 9 9 7 7 7 9 5 7 6 5 6 6 4 4 4 5 6 7 11 12 12 13 15 13 12 12 11 13 12 13 17
Wind_Direction
307 293 195 324 32 71 282 315 357 42 61 66 84 70 85 95 138 198 177 261 270 146 124 108 108 121 127 127 126 124 121 119 115 114 112 109 107 107 107 106 107 108 112 112 111 108 102 98 97
310 305 218 294 72 9 303 1 3 68 116 111 93 76 41 80 209 250 191 224 195 139 106 110 114 120 126 127 128 128 130 128 128 127 124 120 120 121 119 123 121 122 124 122 121 120 116 114 117
249 220 72 149 43 324 306 12 342 343 156 117 102 119 133 164 188 194 203 179 162 113 110 112 118 119 125 127 126 132 135 134 135 136 137 136 134 133 130 133 136 138 139 139 135 132 127 132 149
323 354 355 65 324 303 1 11 351 349 82 82 148 135 187 203 156 211 186 151 108 111 126 120 116 118 121 125 127 133 136 140 141 144 144 142 142 141 142 146 147 148 147 150 148 148 153 161 187
285 329 321 160 347 331 343 20 354 8 74 88 91 90 74 181 83 81 81 71 78 106 133 125 123 124 126 126 128 137 138 142 145 150 151 150 150 150 153 152 154 157 162 167 165 169 182 194 216
359 80 18 164 187 236 108 5 330 25 46 84 83 76 85 122 95 105 126 114 103 267 219 148 138 134 129 129 129 136 139 146 152 156 157 158 159 161 169 170 169 173 177 184 186 187 198 207 235
164 104 246 293 248 172 124 359 34 43 39 18 79 70 329 9 354 127 135 142 162 170 176 143 145 143 145 146 143 147 148 154 161 165 166 167 169 174 184 187 186 187 187 191 192 195 202 212 227
152 93 291 268 243 152 170 97 110 66 80 89 61 82 327 311 354 22 118 142 157 152 120 134 136 134 132 143 154 158 158 160 163 169 175 177 180 184 191 193 200 199 199 199 197 199 207 213 226
119 43 294 303 54 157 192 126 39 5 52 76 92 123 187 321 8 28 40 79 96 118 144 121 134 155 177 166 171 164 168 168 164 172 177 180 180 196 205 204 202 203 202 207 207 205 211 215 223
124 124 261 47 41 34 13 27 154 135 12 90 108 120 118 59 29 37 45 53 66 94 66 90 69 122 179 167 159 166 170 183 184 180 184 180 186 191 205 206 211 207 205 203 206 212 217 222 218
259 160 358 53 54 25 359 351 336 93 18 53 139 120 122 123 83 57 38 73 87 63 70 42 41 79 57 83 156 204 229 198 203 188 189 188 194 207 200 202 210 205 207 202 204 200 204 216 227
4 83 56 25 72 27 326 323 345 40 43 117 118 95 40 73 141 112 82 62 71 78 64 40 31 18 28 112 93 97 325 224 224 199 192 196 205 202 215 187 190 190 197 204 203 204 202 214 226
336 353 127 96 42 252 6 329 326 315 348 121 129 134 169 265 184 154 121 90 76 56 59 54 32 23 14 16 355 357 11 193 263 203 200 198 214 213 200 191 175 187 192 199 211 210 209 214 224
319 338 312 151 228 166 179 283 2 280 242 184 158 145 346 296 306 134 113 99 83 77 55 38 40 31 10 358 353 337 338 325 341 245 207 210 218 213 204 196 174 180 196 195 208 221 222 221 219
236 244 274 248 202 175 111 258 274 275 242 211 164 159 229 288 280 252 138 118 110 103 98 77 63 24 8 341 330 325 316 324 321 320 214 229 214 223 214 204 202 200 177 190 199 221 226 233 225
265 286 244 227 199 202 114 241 264 272 313 182 181 202 202 222 235 123 124 112 104 98 86 77 66 40 346 327 324 323 311 312 308 305 308 238 234 215 219 209 202 207 215 192 178 189 211 229 223
283 312 349 11 199 156 151 221 236 255 266 228 238 220 203 212 227 127 115 110 103 100 93 84 72 35 339 338 343 342 355 349 327 320 309 304 264 239 232 219 208 193 202 198 202 254 187 210 220
344 347 336 321 314 254 245 258 260 268 305 269 276 250 228 215 196 122 119 117 114 109 104 101 108 68 348 344 345 345 352 341 328 317 314 317 327 289 234 224 245 260 207 255 253 217 261 219 233
345 331 315 294 283 356 334 331 323 324 323 287 270 257 246 113 116 118 123 124 123 125 126 142 124 107 47 17 0 346 344 330 322 323 344 332 352 4 321 233 196 74 339 310 248 279 243 284 254
325 299 287 285 341 15 337 312 302 293 280 264 258 251 130 138 140 141 142 143 147 155 155 145 132 147 129 98 312 255 325 303 292 326 324 336 345 342 10 330 257 175 184 214 249 218 228 242 219
311 338 350 332 334 353 339 311 322 302 296 291 202 147 129 141 160 158 156 159 159 160 158 145 159 163 142 158 88 338 304 316 346 343 335 336 334 333 332 311 247 200 197 217 220 217 194 239 269
2 351 350 338 354 291 33 294 301 282 289 300 184 157 170 179 162 159 162 177 169 166 156 160 156 164 162 149 121 109 213 311 282 301 319 320 326 320 322 313 263 183 170 256 255 255 228 194 240
287 318 306 293 292 316 288 251 292 302 356 17 18 12 23 20 34 128 190 182 158 138 83 71 62 45 133 173 226 191 279 263 270 308 316 316 313 318 321 322 260 247 202 205 221 242 260 211 234
329 354 324 340 307 329 278 24 301 37 54 33 24 33 41 36 38 38 25 36 37 55 59 59 40 357 331 231 248 238 270 288 311 307 311 308 314 321 349 11 338 298 271 249 241 219 224 240 242
16 15 336 348 354 248 332 3 249 63 49 45 21 20 40 50 43 43 36 33 31 25 30 33 17 317 293 263 234 254 260 276 280 277 286 303 315 317 318 325 300 284 287 281 278 302 274 244 240
351 38 162 264 270 278 341 263 266 97 39 34 45 18 23 45 44 73 71 49 50 94 123 147 174 234 233 209 196 211 233 249 265 269 277 293 297 300 306 314 331 310 277 276 270 219 267 295 259
313 310 242 272 297 306 225 273 351 79 22 40 34 23 40 37 48 71 147 123 10 263 219 231 254 245 242 182 204 239 244 263 249 264 279 280 289 298 303 306 287 281 283 261 268 278 255 270 295
260 292 351 312 310 277 326 324 271 8 9 18 11 24 10 8 10 5 347 306 251 267 284 259 257 242 233 208 205 225 242 247 267 326 319 296 286 298 298 295 284 269 264 274 243 245 246 238 224
325 323 329 133 12 256 324 293 314 9 34 10 1 54 16 351 357 336 305 296 279 249 267 288 299 279 304 278 270 288 306 326 14 352 319 299 301 313 320 317 304 295 285 277 252 207 221 224 229
346 350 360 124 286 247 262 272 7 342 19 355 359 44 2 323 274 288 298 306 304 268 281 282 330 13 8 6 359 346 351 357 347 317 305 302 304 306 307 305 296 292 285 281 291 259 223 213 234